Content
SEND FEEDBACK

Daily
Averages
Monthly
Summary
United States of America

CAIRO, GEORGIA


Home > North America > United States > Georgia
Elevation: 27 feet     Latitude: 30 54N     Longitude: 084 13W

WEATHER
 
SELECT A DAY
Number of Records: 148,182;   Date Range: 6/10/10 - 9/30/14
 
SHARE

PRINT THIS DATA

[ ← Previous Day ]
WEATHER ALMANAC - JANUARY 23, 2013
[ Next Day → ]
[ °C ]   °F
Weather ElementAverageHighLow
Temperature45 °F60.8 °F (2:15 pm)32 °F (3:55 am)
Dewpoint34.7 °F42.8 °F (6:35 pm)26.6 °F (10:55 am)
Humidity71.2 %100 % (3:55 am)39 % (1:35 pm)
Barometer30.35 in30.44 in (9:55 am)30.30 in (5:55 pm)
Wind Speed2.2 mph8.1 mph (4:55 pm)
Weather ElementAverage
Visibility8.5 mi
Wind DirectionESE (104.5 °)

Weather ElementTotal
Precipitation---
Heating Degree Days18.6 (Base 65)
Averaged from 67 records on January 23, 2013
WEATHER CONDITIONS BREAKOUT
WIND DIRECTION BREAKOUT
WEATHER BY HOUR - JANUARY 23, 2013
[ °C ]   °F
Local TimeTemperatureDewpointHumidityBarometerVisibilityWind DirectionWind SpeedGust SpeedPrecipitationEventsConditions
12:35 AM35.6 °F32.0 °F87 %30.34 in5.0 miCalmClear
12:55 AM33.8 °F32.0 °F93 %30.34 in5.0 miCalmClear
1:15 AM35.6 °F32.0 °F87 %30.34 in5.0 miCalmHaze
1:35 AM33.8 °F32.0 °F93 %30.33 in4.0 miCalmClear
1:55 AM33.8 °F32.0 °F93 %30.33 in5.0 miCalmClear
2:15 AM33.8 °F32.0 °F93 %30.34 in5.0 miCalmClear
2:35 AM33.8 °F30.2 °F87 %30.34 in7.0 miCalmClear
2:55 AM33.8 °F30.2 °F87 %30.34 in7.0 miCalmClear
3:15 AM33.8 °F32.0 °F93 %30.34 in7.0 miCalmClear
3:55 AM32.0 °F32.0 °F100 %30.34 in7.0 miCalmClear
4:15 AM32.0 °F30.2 °F93 %30.34 in7.0 miNorth (360°)3.5 mphClear
4:35 AM32.0 °F30.2 °F93 %30.34 in7.0 miNorth (360°)3.5 mphClear
4:55 AM32.0 °F32.0 °F100 %30.35 in7.0 miNorth (350°)3.5 mphClear
5:15 AM32.0 °F30.2 °F93 %30.35 in7.0 miCalmClear
5:35 AM32.0 °F30.2 °F93 %30.36 in7.0 miCalmClear
5:55 AM32.0 °F30.2 °F93 %30.36 in7.0 miCalmClear
6:15 AM32.0 °F30.2 °F93 %30.37 in7.0 miCalmClear
6:35 AM32.0 °F30.2 °F93 %30.37 in7.0 miCalmClear
6:55 AM32.0 °F30.2 °F93 %30.38 in7.0 miCalmClear
7:15 AM32.0 °F30.2 °F93 %30.39 in7.0 miCalmClear
7:35 AM32.0 °F30.2 °F93 %30.40 in5.0 miCalmClear
7:55 AM33.8 °F30.2 °F87 %30.41 in7.0 miCalmClear
8:15 AM35.6 °F32.0 °F87 %30.41 in7.0 miCalmClear
8:35 AM37.4 °F32.0 °F81 %30.42 in7.0 miCalmClear
8:55 AM39.2 °F32.0 °F75 %30.42 in7.0 miENE (60°)3.5 mphClear
9:15 AM41.0 °F32.0 °F70 %30.43 in10.0 miCalmClear
9:35 AM42.8 °F30.2 °F61 %30.43 in10.0 miNE (50°)4.6 mphScattered Clouds
9:55 AM44.6 °F30.2 °F57 %30.44 in10.0 miENE (70°)4.6 mphMostly Cloudy
10:35 AM50.0 °F28.4 °F43 %30.44 in10.0 miCalmMostly Cloudy
10:55 AM50.0 °F26.6 °F40 %30.44 in10.0 miCalmClear
11:15 AM51.8 °F28.4 °F41 %30.44 in10.0 miNorth (10°)3.5 mphClear
11:35 AM51.8 °F28.4 °F41 %30.43 in10.0 miNorth (10°)3.5 mphClear
11:55 AM53.6 °F30.2 °F41 %30.41 in10.0 miCalmClear
12:15 PM53.6 °F32.0 °F44 %30.40 in10.0 miNW (320°)4.6 mphClear
12:35 PM55.4 °F32.0 °F41 %30.39 in10.0 miNNW (330°)4.6 mphClear
12:55 PM55.4 °F33.8 °F44 %30.37 in10.0 miNorth (350°)6.9 mphClear
1:15 PM57.2 °F33.8 °F41 %30.36 in10.0 miNNE (20°)5.8 mphClear
1:35 PM59.0 °F33.8 °F39 %30.35 in10.0 miCalmClear
1:55 PM59.0 °F33.8 °F39 %30.34 in10.0 miWNW (290°)5.8 mphClear
2:15 PM60.8 °F35.6 °F39 %30.33 in7.0 miNNW (340°)4.6 mphClear
2:35 PM60.8 °F37.4 °F42 %30.32 in10.0 miNNW (340°)6.9 mphClear
2:55 PM60.8 °F35.6 °F39 %30.32 in10.0 miNW (320°)3.5 mphClear
3:15 PM60.8 °F35.6 °F39 %30.31 in10.0 miNW (310°)5.8 mphClear
3:35 PM60.8 °F37.4 °F42 %30.31 in10.0 miWNW (290°)5.8 mphClear
4:15 PM60.8 °F37.4 °F42 %30.31 in10.0 miWest (270°)6.9 mphClear
4:55 PM60.8 °F37.4 °F42 %30.31 in10.0 miWNW (300°)8.1 mphClear
5:15 PM59.0 °F39.2 °F48 %30.31 in10.0 miCalmClear
5:35 PM59.0 °F39.2 °F48 %30.31 in10.0 miCalmClear
5:55 PM55.4 °F41.0 °F58 %30.30 in10.0 miCalmClear
6:15 PM53.6 °F41.0 °F62 %30.31 in10.0 miCalmClear
6:35 PM50.0 °F42.8 °F76 %30.31 in10.0 miCalmClear
6:55 PM50.0 °F41.0 °F71 %30.32 in10.0 miNW (310°)4.6 mphClear
7:15 PM51.8 °F41.0 °F67 %30.31 in10.0 miWest (270°)3.5 mphClear
7:35 PM46.4 °F41.0 °F81 %30.31 in10.0 miCalmClear
7:55 PM46.4 °F41.0 °F81 %30.31 in10.0 miCalmClear
8:15 PM46.4 °F41.0 °F81 %30.32 in10.0 miCalmClear
8:35 PM44.6 °F41.0 °F87 %30.31 in10.0 miCalmClear
8:55 PM44.6 °F41.0 °F87 %30.32 in10.0 miCalmClear
9:15 PM44.6 °F41.0 °F87 %30.31 in10.0 miSW (230°)3.5 mphClear
9:35 PM44.6 °F41.0 °F87 %30.31 in10.0 miCalmClear
9:55 PM44.6 °F41.0 °F87 %30.31 in10.0 miCalmClear
10:15 PM42.8 °F39.2 °F87 %30.31 in10.0 miSW (230°)3.5 mphClear
10:35 PM44.6 °F41.0 °F87 %30.31 in10.0 miSW (230°)8.1 mphClear
10:55 PM48.2 °F41.0 °F76 %30.31 in10.0 miSW (230°)6.9 mphScattered Clouds
11:15 PM50.0 °F41.0 °F71 %30.31 in10.0 miWSW (250°)5.8 mphOvercast
11:35 PM50.0 °F41.0 °F71 %30.30 in7.0 miWest (260°)5.8 mphOvercast
11:55 PM50.0 °F41.0 °F71 %30.30 in7.0 miWSW (240°)6.9 mphScattered Clouds
Hourly data recorded from KTVI, located miles away from Cairo, Georgia







STORIES FROM OUR PARTNERS